Change the Weather History Date:

Saturday, May 4, 2013

  Actual Average Record
Temperature  
Mean Temperature 62 °F 52 °F  
Max Temperature 77 °F 63 °F 89 °F (1944)
Min Temperature 46 °F 42 °F 27 °F (1946)
Degree Days  
Heating Degree Days 3 13  
Month to date heating degree days 8 54  
Since 1 July heating degree days 6475 7128  
Cooling Degree Days 0 0  
Month to date cooling degree days 2 0  
Year to date cooling degree days 2 2  
Growing Degree Days 12 (Base 50)    
Moisture  
Dew Point 41 °F    
Average Humidity 51    
Maximum Humidity 77    
Minimum Humidity 25    
Precipitation  
Precipitation 0.00 in 0.10 in 1.06 in (1945)
Month to date precipitation 0.00 0.39  
Year to date precipitation 6.53 9.25  
Snow  
Snow 0.00 in 0.00 in 0.30 in (1956)
Month to date snowfall 0.0 0.1  
Since 1 July snowfall 82.9 81.3  
Snow Depth 0.00 in    
Sea Level Pressure  
Sea Level Pressure 30.27 in    
Wind  
Wind Speed 4 mph (NNW)    
Max Wind Speed 15 mph    
Max Gust Speed 20 mph    
Visibility 10 miles    
Events      
T = Trace of Precipitation, MM = Missing Value Source: NWS Daily Summary

Daily Weather History Graph

Daily Weather History Graph

Search for Another Location

Airport or City:

Trip Planner

Search our weather history database for the weather conditions in past years. The results will help you decide how hot, cold, wet, or windy it might be!

Date:

Astronomy

May. 04, 2013 Rise Set
Actual Time 5:38 AM EDT 8:00 PM EDT
Civil Twilight 5:06 AM EDT 8:33 PM EDT
Nautical Twilight 4:26 AM EDT 9:13 PM EDT
Astronomical Twilight 3:40 AM EDT 9:59 PM EDT
Moon 2:48 AM EDT (5/4) 2:44 PM EDT (5/4)
Length of Visible Light 15h 27m
Length of Day
14h 22m
Waning Crescent, 27% of the Moon is Illuminated
May 4
Waning Crescent
May 9
New
May 18
First Quarter
May 25
Full
May 31
Last Quarter

Hourly Weather History & Observations

Time (EDT) Temp. Dew Point Humidity Pressure Visibility Wind Dir Wind Speed Gust Speed Precip Events Conditions
12:54 AM 52.0 °F 42.1 °F 69% 30.34 in 10.0 mi Calm Calm - N/A   Clear
1:54 AM 52.0 °F 39.9 °F 63% 30.32 in 10.0 mi Calm Calm - N/A   Clear
2:54 AM 48.0 °F 41.0 °F 77% 30.32 in 10.0 mi ESE 3.5 mph - N/A   Clear
3:54 AM 46.9 °F 39.9 °F 77% 30.32 in 10.0 mi East 4.6 mph - N/A   Clear
4:54 AM 46.9 °F 39.9 °F 77% 30.32 in 10.0 mi Calm Calm - N/A   Clear
5:54 AM 46.9 °F 39.9 °F 77% 30.34 in 10.0 mi ENE 4.6 mph - N/A   Clear
6:54 AM 50.0 °F 42.1 °F 74% 30.34 in 10.0 mi Calm Calm - N/A   Clear
7:54 AM 55.9 °F 42.1 °F 60% 30.35 in 10.0 mi Calm Calm - N/A   Clear
8:54 AM 62.1 °F 43.0 °F 50% 30.34 in 10.0 mi SSW 3.5 mph - N/A   Clear
9:54 AM 66.0 °F 44.1 °F 45% 30.34 in 10.0 mi Variable 3.5 mph - N/A   Clear
10:54 AM 70.0 °F 42.1 °F 36% 30.32 in 10.0 mi Variable 3.5 mph - N/A   Partly Cloudy
11:54 AM 71.1 °F 42.1 °F 35% 30.30 in 10.0 mi NW 8.1 mph - N/A   Partly Cloudy
12:54 PM 73.0 °F 39.0 °F 29% 30.28 in 10.0 mi West 11.5 mph - N/A   Partly Cloudy
1:54 PM 75.0 °F 37.9 °F 26% 30.26 in 10.0 mi NW 9.2 mph 17.3 mph N/A   Partly Cloudy
2:54 PM 75.0 °F 37.9 °F 26% 30.23 in 10.0 mi NNW 12.7 mph - N/A   Partly Cloudy
3:54 PM 75.9 °F 37.9 °F 25% 30.21 in 10.0 mi NW 10.4 mph - N/A   Partly Cloudy
4:54 PM 75.9 °F 39.0 °F 26% 30.20 in 10.0 mi WNW 9.2 mph - N/A   Partly Cloudy
5:54 PM 75.0 °F 39.0 °F 27% 30.19 in 10.0 mi NNW 9.2 mph - N/A   Partly Cloudy
6:54 PM 73.9 °F 39.0 °F 28% 30.18 in 10.0 mi North 5.8 mph - N/A   Partly Cloudy
7:54 PM 72.0 °F 39.0 °F 30% 30.18 in 10.0 mi Calm Calm - N/A   Partly Cloudy
8:54 PM 64.0 °F 42.1 °F 45% 30.19 in 10.0 mi Calm Calm - N/A   Clear
9:54 PM 61.0 °F 44.1 °F 54% 30.19 in 10.0 mi Calm Calm - N/A   Clear
10:54 PM 61.0 °F 42.1 °F 50% 30.20 in 10.0 mi SE 4.6 mph - N/A   Clear
11:54 PM 55.9 °F 44.1 °F 64% 30.21 in 10.0 mi Calm Calm - N/A   Clear